Current weather by "City, St" or "zip code"  
 
Advertise Here

Current Conditions: Janesville-Rock County, WI

Overcast


30.0 F

Last Updated on Jan 18 2021, 3:35 am CST
Humidity: 86%
Wind Speed: W 5.8 mph
Barometer 29.77 in
Dewpoint: 26.6 F
Visibility: 10.00 mi
Precip: --
Heat Index: NA
Wind Chill: 24 F
Current conditions at:

Janesville-Rock County, WI (KJVL)

Lat: 42.62135 Lon: 89.04186

Local Radar Image active severe weather and emergency alerts image image weather storm and storm spotter reports image weather observation monitoring service image
Local
Radar
Active
Alerts
Storm Reports Obs
Monitoring

Sign-up For Email & Text Message Weather Alert Notification Services


Advertise Here

Observation History for Janesville-Rock County, WI


Time Wind
(mph)
Vis
(mi)
Weather Precip (in) Temperature (F) Relative
Humidity
Wind
Chill
(F)
Heat
Index
(F)
Pressure
Air Dwpt altimeter
(in)
sea level
(mb)
Rmks
3:35 am CST W 5.8 10.00 Overcast -- 30.0 26.6 86% 24 NA 29.77 M
2:35 am CST W 3.5 10.00 Overcast -- 30.0 26.6 86% NA NA 29.77 M
1:35 am CST W 3.5 10.00 Overcast -- 30.0 30.2 100% NA NA 29.76 M
12:35 am CST N 0.0 10.00 Overcast -- 28.0 28.4 100% NA NA 29.76 M
11:35 pm CST N 0.0 10.00 Overcast -- 28.0 28.4 100% NA NA 29.76 M
10:35 pm CST N 0.0 10.00 Overcast -- 28.0 28.4 100% NA NA 29.76 M
8:45 pm CST W 4.6 7.00 Light Snow -- 28.0 28.4 100% 23 NA 29.76 M
7:45 pm CST W 4.6 3.00 Light Snow -- 28.0 28.4 100% 23 NA 29.76 M
6:45 pm CST W 5.8 2.00 Light Snow -- 28.0 28.4 100% 22 NA 29.76 M
5:45 pm CST NW 3.5 10.00 Overcast -- 28.0 28.4 100% NA NA 29.74 M
4:45 pm CST NW 6.9 10.00 Overcast -- 30.0 26.6 86% 23 NA 29.73 M
3:45 pm CST NW 8.1 10.00 Overcast -- 30.0 26.6 86% 22 NA 29.72 M
1:45 pm CST NW 9.2 10.00 Light Snow -- 32.0 26.6 80% 24 NA 29.69 M
12:45 pm CST NW 9.2 5.00 Light Snow -- 30.0 28.4 93% 22 NA 29.70 M
11:45 am CST NW 5.8 4.00 Fog/Mist -- 30.0 26.6 86% 24 NA 29.71 M
10:45 am CST N 8.1 3.00 Light Snow -- 30.0 28.4 93% 22 NA 29.72 M
9:45 am CST N 11.5 5.00 Light Snow -- 30.0 28.4 93% 20 NA 29.73 M
8:45 am CST 4.6 2.50 Light Snow -- 30.0 30.2 100% 25 NA 29.72 M
7:45 am CST N 0.0 3.00 Light Snow -- 30.0 30.2 100% NA NA 29.71 M
6:45 am CST N 0.0 10.00 Overcast -- 32.0 30.2 93% NA NA 29.70 M
5:45 am CST NE 3.5 10.00 Overcast -- 32.0 32.0 100% NA NA 29.69 M
4:35 am CST NW 3.5 10.00 Overcast -- 32.0 32.0 100% NA NA 29.68 M

Regional Weather Observation


Monroe Municipal Airport, WI (KEFT)

Overcast
24.0 F

Madison, Dane County Regional-Truax Field, WI (KMSN)

Overcast
27.0 F

Middleton Muni - Morey Field, WI (KC29)

Overcast
29.0 F

Rockford, Greater Rockford Airport, IL (KRFD)

Overcast
28.0 F

Albertus Airport, IL (KFEP)

Overcast
25.0 F

East Troy Municipal Airport, WI (K57C)

Overcast
25.0 F